EW4115 Weather Reports


Display with metric or nautical units.
time (UTC)temp
F
wind
direction
speed
MPH
gust
MPH
rain 1hr
in
rain 24hr
in
rain mn
in
humidity
%
barometer
mb
20260507171544 70 46 0.0 4.0 0.00 0.00 0.00 47 1017.4
20260507170044 72 58 0.0 5.0 0.00 0.00 0.00 45 1017.0
20260507164556 73 75 0.0 5.0 0.00 0.00 0.00 39 1016.6
20260507163043 74 236 0.0 2.0 0.00 0.00 0.00 31 1016.7
20260507161543 74 236 0.0 3.0 0.00 0.00 0.00 31 1016.8
20260507160043 75 235 1.0 5.0 0.00 0.00 0.00 31 1016.8
20260507154550 76 204 0.0 5.0 0.00 0.00 0.00 30 1016.9
20260507153041 76 242 1.0 8.0 0.00 0.00 0.00 29 1017.2
20260507151541 77 146 0.0 6.0 0.00 0.00 0.00 29 1017.3
20260507150040 77 111 1.0 10.0 0.00 0.00 0.00 30 1017.2
20260507144539 77 235 1.0 7.0 0.00 0.00 0.00 30 1017.2
20260507143038 78 237 1.0 8.0 0.00 0.00 0.00 28 1017.1
20260507141542 78 248 2.0 9.0 0.00 0.00 0.00 29 1017.1
20260507140037 79 287 3.0 10.0 0.00 0.00 0.00 27 1016.7
20260507134539 80 292 2.0 8.0 0.00 0.00 0.00 26 1016.7
20260507133050 80 231 1.0 8.0 0.00 0.00 0.00 27 1016.5
20260507131545 79 256 1.0 7.0 0.00 0.00 0.00 30 1016.6
20260507130047 78 299 2.0 8.0 0.00 0.00 0.00 30 1016.8
20260507124534 78 89 0.0 5.0 0.00 0.00 0.00 32 1017.1
20260507123034 80 245 2.0 6.0 0.00 0.00 0.00 34 1017.1
20260507121533 81 250 1.0 6.0 0.00 0.00 0.00 30 1017.2
20260507120039 81 73 1.0 8.0 0.00 0.00 0.00 31 1017.2
20260507114554 81 150 2.0 9.0 0.00 0.00 0.00 28 1017.3
20260507113031 81 241 1.0 8.0 0.00 0.00 0.00 31 1017.4
20260507111531 80 263 1.0 9.0 0.00 0.00 0.00 32 1017.4
20260507110025 79 252 3.0 10.0 0.00 0.00 0.00 44 1017.2
20260507104523 79 266 2.0 12.0 0.00 0.00 0.00 47 1017.3
20260507103112 78 241 1.0 12.0 0.00 0.00 0.00 49 1016.9
20260507101531 78 258 3.0 10.0 0.00 0.00 0.00 50 1016.9
20260507100123 78 150 3.0 9.0 0.00 0.00 0.00 46 1017.0
20260507094539 78 249 1.0 8.0 0.00 0.00 0.00 46 1017.1
20260507093132 78 218 3.0 7.0 0.00 0.00 0.00 46 1017.0
20260507091552 78 241 2.0 10.0 0.00 0.00 0.00 44 1017.0
20260507090020 78 235 1.0 8.0 0.00 0.00 0.00 43 1016.8
20260507084604 78 234 1.0 5.0 0.00 0.00 0.00 43 1017.0
20260507083024 77 243 0.0 5.0 0.00 0.00 0.00 44 1017.0
20260507081616 77 256 1.0 7.0 0.00 0.00 0.00 43 1016.9
20260507080037 77 263 2.0 9.0 0.00 0.00 0.00 43 1016.9
20260507074626 77 217 0.0 2.0 0.00 0.00 0.00 43 1016.9
20260507073052 77 91 2.0 3.0 0.00 0.00 0.00 41 1016.6
20260507071510 77 228 0.0 3.0 0.00 0.00 0.00 44 1016.8
20260507070105 76 227 0.0 4.0 0.00 0.00 0.00 45 1016.9
20260507064523 75 232 1.0 3.0 0.00 0.00 0.00 46 1016.9
20260507063112 75 241 0.0 4.0 0.00 0.00 0.00 47 1016.8
20260507061528 74 247 0.0 2.0 0.00 0.00 0.00 48 1016.7
20260507060114 72 247 0.0 2.0 0.00 0.00 0.00 51 1016.6
20260507054537 70 247 0.0 1.0 0.00 0.00 0.00 54 1016.4
20260507053130 68 247 0.0 0.0 0.00 0.00 0.00 59 1016.2
20260507051533 67 247 0.0 1.0 0.00 0.00 0.00 61 1016.1
20260507050029 64 247 0.0 0.0 0.00 0.00 0.00 65 1016.2
20260507044523 62 247 0.0 1.0 0.00 0.00 0.00 70 1016.1
20260507043023 60 247 0.0 0.0 0.00 0.00 0.00 76 1016.1
20260507041513 59 247 0.0 0.0 0.00 0.00 0.00 78 1016.2
20260507040011 58 247 0.0 0.0 0.00 0.00 0.00 78 1016.2
20260507034505 57 247 0.0 0.0 0.00 0.00 0.00 77 1016.3
20260507033004 58 247 0.0 0.0 0.00 0.00 0.00 76 1016.2
20260507031503 58 247 0.0 0.0 0.00 0.00 0.00 75 1016.0
20260507030002 58 247 0.0 0.0 0.00 0.00 0.00 75 1016.0
20260507024608 58 247 0.0 0.0 0.00 0.00 0.00 74 1015.8
20260507023059 59 247 0.0 0.0 0.00 0.00 0.00 73 1015.8
20260507021603 59 247 0.0 0.0 0.00 0.00 0.00 73 1015.8
20260507020113 59 247 0.0 1.0 0.00 0.00 0.00 72 1015.7
20260507014604 59 247 0.0 0.0 0.00 0.00 0.00 71 1015.6
20260507013058 59 247 0.0 0.0 0.00 0.00 0.00 71 1015.4
20260507011555 59 247 0.0 1.0 0.00 0.00 0.00 72 1015.2
20260507004602 60 247 0.0 0.0 0.00 0.00 0.00 71 1015.1
20260507003053 60 247 0.0 0.0 0.00 0.00 0.00 71 1014.9
20260507001551 60 247 0.0 0.0 0.00 0.00 0.00 70 1015.0
20260507000047 60 247 0.0 0.0 0.00 0.00 0.00 70 1015.2
20260506234548 61 247 0.0 1.0 0.00 0.00 0.00 68 1015.5
20260506233056 61 247 0.0 0.0 0.00 0.00 0.00 67 1015.7
20260506231539 61 247 0.0 0.0 0.00 0.00 0.00 66 1015.7
20260506230046 62 247 0.0 0.0 0.00 0.00 0.00 65 1015.7
20260506224537 62 247 0.0 0.0 0.00 0.00 0.00 65 1015.8
20260506223041 62 247 0.0 0.0 0.00 0.00 0.00 64 1015.9
20260506221532 63 247 0.0 0.0 0.00 0.00 0.00 63 1016.0
20260506220030 63 247 0.0 0.0 0.00 0.00 0.00 61 1016.0
20260506214539 63 247 0.0 0.0 0.00 0.00 0.00 60 1016.0
20260506213027 63 247 0.0 0.0 0.00 0.00 0.00 59 1016.2
20260506211526 64 247 0.0 0.0 0.00 0.00 0.00 59 1016.3
20260506210027 64 247 0.0 0.0 0.00 0.00 0.00 58 1016.4
20260506204524 64 247 0.0 0.0 0.00 0.00 0.00 57 1016.4
20260506203023 65 247 0.0 0.0 0.00 0.00 0.00 55 1016.5
20260506201523 66 247 0.0 0.0 0.00 0.00 0.00 55 1016.3
20260506200021 66 247 0.0 0.0 0.00 0.00 0.00 54 1016.2
20260506194519 67 247 0.0 0.0 0.00 0.00 0.00 53 1016.1
20260506193016 67 247 0.0 0.0 0.00 0.00 0.00 52 1015.9
20260506191516 68 247 0.0 0.0 0.00 0.00 0.00 52 1015.8
20260506190016 68 247 0.0 0.0 0.00 0.00 0.00 51 1015.6
20260506184532 69 247 0.0 0.0 0.00 0.00 0.00 49 1015.5
20260506183022 69 247 0.0 1.0 0.00 0.00 0.00 47 1015.4
20260506181516 70 247 0.0 0.0 0.00 0.00 0.00 46 1015.2
20260506180015 70 247 0.0 1.0 0.00 0.00 0.00 43 1015.1
20260506174513 70 247 0.0 3.0 0.00 0.00 0.00 41 1015.0
20260506173013 71 246 0.0 5.0 0.00 0.00 0.00 40 1014.9